| time (UTC) | temp F | wind direction | speed knots | gust knots | rain 1hr in | rain 24hr in | rain mn in | humidity % | barometer mb |
| 20260504081515 | 40 | 238 | 2.6 | 4.3 | 0.00 | 0.00 | 0.00 | 76 | 1012.0 |
| 20260504050020 | 40 | 284 | 0.0 | 0.0 | 0.00 | 0.00 | 0.00 | 77 | 1011.6 |
| 20260504044533 | 40 | 284 | 0.0 | 0.0 | 0.00 | 0.00 | 0.00 | 76 | 1011.5 |
| 20260504043018 | 41 | 273 | 0.0 | 0.0 | 0.00 | 0.00 | 0.00 | 74 | 1011.4 |
| 20260504041522 | 41 | 273 | 0.0 | 0.0 | 0.00 | 0.00 | 0.00 | 73 | 1011.4 |
| 20260504040022 | 41 | 264 | 0.0 | 0.0 | 0.00 | 0.00 | 0.00 | 73 | 1011.4 |
| 20260504034531 | 41 | 260 | 0.0 | 0.0 | 0.00 | 0.00 | 0.00 | 72 | 1011.3 |
| 20260504033031 | 42 | 260 | 0.0 | 0.0 | 0.00 | 0.00 | 0.00 | 72 | 1011.3 |
| 20260504031520 | 42 | 257 | 0.0 | 0.0 | 0.00 | 0.00 | 0.00 | 69 | 1011.3 |
| 20260504030017 | 42 | 247 | 0.0 | 0.0 | 0.00 | 0.00 | 0.00 | 66 | 1011.3 |
| 20260504024515 | 43 | 245 | 0.0 | 1.7 | 0.00 | 0.00 | 0.00 | 65 | 1011.2 |
| 20260504023024 | 43 | 245 | 0.0 | 0.9 | 0.00 | 0.00 | 0.00 | 62 | 1011.3 |
| 20260504021531 | 44 | 243 | 0.0 | 0.9 | 0.00 | 0.00 | 0.00 | 61 | 1011.3 |
| 20260504020021 | 45 | 243 | 0.0 | 0.9 | 0.00 | 0.00 | 0.00 | 59 | 1011.3 |
| 20260504014521 | 46 | 239 | 0.0 | 1.7 | 0.00 | 0.00 | 0.00 | 57 | 1011.3 |
| 20260504013029 | 47 | 243 | 0.0 | 2.6 | 0.00 | 0.00 | 0.00 | 55 | 1011.2 |
| 20260504011518 | 48 | 239 | 0.0 | 1.7 | 0.00 | 0.00 | 0.00 | 50 | 1011.1 |
| 20260504010023 | 49 | 244 | 0.9 | 1.7 | 0.00 | 0.00 | 0.00 | 45 | 1010.9 |
| 20260504004522 | 51 | 243 | 0.9 | 1.7 | 0.00 | 0.00 | 0.00 | 44 | 1010.7 |
| 20260504003003 | 52 | 245 | 0.9 | 2.6 | 0.00 | 0.00 | 0.00 | 41 | 1010.5 |
| 20260504001503 | 53 | 298 | 0.0 | 4.3 | 0.00 | 0.00 | 0.00 | 38 | 1010.2 |
| 20260504000004 | 53 | 271 | 1.7 | 2.6 | 0.00 | 0.00 | 0.00 | 37 | 1010.0 |
| 20260503234503 | 54 | 297 | 0.9 | 3.5 | 0.00 | 0.00 | 0.00 | 34 | 1009.9 |
| 20260503233002 | 54 | 280 | 1.7 | 5.2 | 0.00 | 0.00 | 0.00 | 36 | 1009.6 |
| 20260503231508 | 55 | 309 | 2.6 | 5.2 | 0.00 | 0.00 | 0.00 | 35 | 1009.5 |
| 20260503230004 | 55 | 284 | 1.7 | 9.6 | 0.00 | 0.00 | 0.00 | 34 | 1009.4 |
| 20260503224503 | 56 | 305 | 3.5 | 9.6 | 0.00 | 0.00 | 0.00 | 33 | 1009.2 |
| 20260503223002 | 56 | 305 | 7.0 | 10.4 | 0.00 | 0.00 | 0.00 | 33 | 1009.1 |
| 20260503221503 | 56 | 288 | 4.3 | 14.8 | 0.00 | 0.00 | 0.00 | 35 | 1009.1 |
| 20260503220008 | 56 | 339 | 3.5 | 13.0 | 0.00 | 0.00 | 0.00 | 35 | 1009.1 |
| 20260503214504 | 56 | 325 | 7.8 | 13.9 | 0.00 | 0.00 | 0.00 | 33 | 1009.1 |
| 20260503213010 | 56 | 331 | 3.5 | 7.8 | 0.00 | 0.00 | 0.00 | 37 | 1009.1 |
| 20260503211514 | 55 | 347 | 6.1 | 13.9 | 0.00 | 0.00 | 0.00 | 36 | 1009.1 |
| 20260503210005 | 56 | 302 | 3.5 | 10.4 | 0.00 | 0.00 | 0.00 | 34 | 1009.2 |
| 20260503204506 | 56 | 326 | 5.2 | 14.8 | 0.00 | 0.00 | 0.00 | 38 | 1009.2 |
| 20260503203007 | 55 | 284 | 6.1 | 12.2 | 0.00 | 0.00 | 0.00 | 39 | 1009.2 |
| 20260503201523 | 56 | 314 | 3.5 | 10.4 | 0.00 | 0.00 | 0.00 | 38 | 1009.2 |
| 20260503200010 | 55 | 310 | 5.2 | 13.0 | 0.00 | 0.00 | 0.00 | 40 | 1009.3 |
| 20260503194506 | 56 | 354 | 4.3 | 13.9 | 0.00 | 0.00 | 0.00 | 42 | 1009.3 |
| 20260503193010 | 54 | 289 | 6.1 | 15.6 | 0.00 | 0.00 | 0.00 | 40 | 1009.4 |
| 20260503191509 | 55 | 307 | 5.2 | 18.2 | 0.00 | 0.00 | 0.00 | 43 | 1009.6 |
| 20260503190018 | 53 | 298 | 9.6 | 15.6 | 0.00 | 0.00 | 0.00 | 43 | 1009.6 |
| 20260503184510 | 53 | 299 | 2.6 | 16.5 | 0.00 | 0.00 | 0.00 | 44 | 1009.7 |
| 20260503183017 | 52 | 307 | 7.8 | 16.5 | 0.00 | 0.00 | 0.00 | 41 | 1009.8 |
| 20260503181524 | 51 | 345 | 6.1 | 15.6 | 0.00 | 0.00 | 0.00 | 41 | 1009.8 |
| 20260503180012 | 52 | 303 | 7.0 | 13.0 | 0.00 | 0.00 | 0.00 | 42 | 1009.6 |
| 20260503174510 | 51 | 343 | 6.1 | 14.8 | 0.00 | 0.00 | 0.00 | 42 | 1009.6 |
| 20260503173028 | 52 | 247 | 6.1 | 16.5 | 0.00 | 0.00 | 0.00 | 43 | 1009.7 |
| 20260503171512 | 52 | 212 | 10.4 | 15.6 | 0.00 | 0.00 | 0.00 | 40 | 1009.7 |